Simultaneous Nadir Overpasses (SNOs) Predictions

Prediction of SNOs between METOP-B and NOAA-19 Satellite Orbit:

Table of predicted SNOs for the next 14.0 days since TLE Epoch: 9/6/2019
Index Date (METOP-B) Time (METOP-B) Lat,Lon (METOP-B) SZA (METOP-B ) Date (NOAA-19) Time (NOAA-19) Lat,Lon (NOAA-19) SZA (NOAA-19 ) Distance(km) Time Diff (sec)
1 09/09/2019 04:00:26 79.55, 137.86 74.62 09/09/2019 03:59:13 79.54, 136.97 74.54 17.99 73
2 09/09/2019 04:51:09 -79.49, -55.26 105.45 09/09/2019 04:50:07 -79.51, -55.42 105.47 3.28 62
3 09/09/2019 05:41:50 79.47, 111.86 74.53 09/09/2019 05:41:12 79.49, 111.97 74.54 3.26 38
4 09/09/2019 06:32:31 -79.48, -80.72 105.45 09/09/2019 06:32:07 -79.48, -80.70 105.45 0.53 24
5 09/09/2019 07:23:11 79.49, 86.67 74.58 09/09/2019 07:23:12 79.47, 86.68 74.56 2.26 1
6 09/09/2019 08:13:53 -79.47,-106.17 105.44 09/09/2019 08:14:08 -79.49,-106.26 105.42 3.22 15
7 09/09/2019 09:04:33 79.47, 61.21 74.59 09/09/2019 09:05:13 79.47, 61.12 74.59 2.02 40
8 09/09/2019 09:55:15 -79.45,-131.63 105.43 09/09/2019 09:56:08 -79.47,-131.55 105.40 2.42 53
9 09/09/2019 10:46:01 79.25, 34.17 74.31 09/09/2019 10:47:07 79.27, 37.50 74.55 68.89 66
10 09/20/2019 04:23:08 -79.53, -47.97 101.14 09/20/2019 04:22:01 -79.51, -48.01 101.18 2.52 67
11 09/20/2019 05:13:48 79.53, 119.31 78.87 09/20/2019 05:13:04 79.50, 119.34 78.83 2.93 44
12 09/20/2019 06:04:30 -79.52, -73.43 101.13 09/20/2019 06:04:02 -79.52, -73.58 101.15 2.99 28
13 09/20/2019 06:55:10 79.51, 93.85 78.88 09/20/2019 06:55:05 79.51, 93.76 78.87 1.90 5
14 09/20/2019 07:45:52 -79.50, -98.88 101.13 09/20/2019 07:46:02 -79.50, -98.86 101.13 1.04 10
15 09/20/2019 08:36:32 79.50, 68.40 78.88 09/20/2019 08:37:05 79.49, 68.48 78.89 2.06 33
16 09/20/2019 09:27:14 -79.49,-124.34 101.12 09/20/2019 09:28:03 -79.50,-124.43 101.10 2.25 49
17 09/20/2019 10:17:54 79.48, 42.94 78.89 09/20/2019 10:19:06 79.49, 42.90 78.92 1.34 72




NCC Satellite Simultaneous Nadir Overpasses (SNOs) Prediction Service
